TimeEDT,TemperatureF,Dew PointF,Humidity,Sea Level PressureIn,VisibilityMPH,Wind Direction,Wind SpeedMPH,Gust SpeedMPH,PrecipitationIn,Events,Conditions,WindDirDegrees,DateUTC
12:56 AM,73.9,70.0,87,30.00,10.0,South,3.5,-,N/A,,Clear,170,2013-07-10 04:56:00
1:56 AM,73.9,71.1,91,29.99,9.0,SSW,5.8,-,N/A,,Clear,210,2013-07-10 05:56:00
2:56 AM,73.9,71.1,91,29.98,9.0,SW,4.6,-,N/A,,Mostly Cloudy,230,2013-07-10 06:56:00
3:56 AM,75.0,72.0,90,29.96,10.0,Calm,Calm,-,0.00,,Overcast,0,2013-07-10 07:56:00
4:56 AM,73.9,70.0,87,29.96,10.0,WSW,4.6,-,N/A,,Overcast,240,2013-07-10 08:56:00
5:56 AM,73.9,70.0,87,29.96,6.0,SSW,3.5,-,N/A,,Mostly Cloudy,200,2013-07-10 09:56:00
6:56 AM,75.9,70.0,82,29.97,8.0,South,6.9,-,N/A,,Mostly Cloudy,180,2013-07-10 10:56:00
7:34 AM,75.2,71.6,89,29.96,8.0,South,9.2,-,N/A,,Mostly Cloudy,180,2013-07-10 11:34:00
7:56 AM,77.0,71.1,82,29.96,9.0,South,10.4,-,N/A,,Mostly Cloudy,180,2013-07-10 11:56:00
8:25 AM,77.0,69.8,78,29.97,9.0,SSW,10.4,-,N/A,,Mostly Cloudy,200,2013-07-10 12:25:00
8:56 AM,78.1,70.0,76,29.96,10.0,SSW,11.5,-,N/A,,Mostly Cloudy,210,2013-07-10 12:56:00
9:56 AM,79.0,71.1,77,29.94,10.0,SSW,10.4,-,N/A,,Mostly Cloudy,200,2013-07-10 13:56:00
10:37 AM,82.4,71.6,70,29.93,10.0,SSE,10.4,-,N/A,,Scattered Clouds,160,2013-07-10 14:37:00
10:56 AM,81.0,72.0,74,29.93,10.0,South,10.4,-,N/A,,Mostly Cloudy,180,2013-07-10 14:56:00
11:56 AM,84.0,73.0,69,29.91,10.0,SSW,9.2,18.4,N/A,,Scattered Clouds,200,2013-07-10 15:56:00
12:50 PM,80.6,71.6,74,29.91,10.0,South,15.0,-,N/A,,Overcast,180,2013-07-10 16:50:00
12:53 PM,80.6,71.6,74,29.91,10.0,South,13.8,-,N/A,,Overcast,180,2013-07-10 16:53:00
12:56 PM,80.1,72.0,76,29.91,10.0,South,15.0,-,N/A,,Overcast,180,2013-07-10 16:56:00
1:56 PM,82.9,73.9,74,29.87,10.0,South,11.5,-,N/A,,Mostly Cloudy,180,2013-07-10 17:56:00
2:56 PM,82.0,73.0,74,29.86,10.0,South,12.7,-,N/A,,Mostly Cloudy,180,2013-07-10 18:56:00
3:12 PM,78.8,71.6,78,29.87,3.0,SSW,13.8,21.9,N/A,,Haze,210,2013-07-10 19:12:00
3:34 PM,82.4,71.6,70,29.86,10.0,SW,10.4,20.7,0.00,,Mostly Cloudy,220,2013-07-10 19:34:00
3:56 PM,81.0,69.1,67,29.85,10.0,SSW,12.7,-,0.00,,Overcast,200,2013-07-10 19:56:00
4:56 PM,82.0,70.0,67,29.83,10.0,SW,13.8,-,N/A,,Mostly Cloudy,220,2013-07-10 20:56:00
5:56 PM,81.0,72.0,74,29.81,10.0,South,13.8,-,0.00,,Scattered Clouds,190,2013-07-10 21:56:00
6:56 PM,78.1,70.0,76,29.83,10.0,SW,13.8,20.7,N/A,,Scattered Clouds,220,2013-07-10 22:56:00
7:56 PM,78.1,71.1,79,29.83,10.0,SW,12.7,-,N/A,,Mostly Cloudy,220,2013-07-10 23:56:00
8:56 PM,77.0,71.1,82,29.84,10.0,SW,11.5,-,N/A,,Mostly Cloudy,220,2013-07-11 00:56:00
9:56 PM,75.9,72.0,87,29.85,10.0,SW,8.1,-,N/A,,Mostly Cloudy,230,2013-07-11 01:56:00
10:56 PM,75.9,72.0,87,29.83,10.0,SSW,8.1,-,N/A,,Mostly Cloudy,210,2013-07-11 02:56:00
11:56 PM,75.9,72.0,87,29.82,10.0,SSW,8.1,-,N/A,,Mostly Cloudy,210,2013-07-11 03:56:00